Time,TemperatureF,DewpointF,PressureIn,WindDirection,WindDirectionDegrees,WindSpeedMPH,WindSpeedGustMPH,Humidity,HourlyPrecipIn,Conditions,Clouds,dailyrainin,SoftwareType,DateUTC
2013-03-20 00:07:00,30.6,23.0,30.11,West,270,2.0,-999.0,73,-99.99,,,0.00,weatherlink.com 1.10,2013-03-20 04:07:00,
2013-03-20 00:22:00,30.7,23.0,30.11,West,269,3.0,-999.0,73,-99.99,,,0.00,weatherlink.com 1.10,2013-03-20 04:22:00,
2013-03-20 00:37:00,30.3,23.0,30.11,WSW,258,4.0,-999.0,74,-99.99,,,0.00,weatherlink.com 1.10,2013-03-20 04:37:00,
2013-03-20 00:52:00,30.1,23.0,30.11,WSW,248,4.0,-999.0,74,-99.99,,,0.00,weatherlink.com 1.10,2013-03-20 04:52:00,
2013-03-20 01:07:00,29.9,23.0,30.10,West,268,3.0,-999.0,74,-99.99,,,0.00,weatherlink.com 1.10,2013-03-20 05:07:00,
2013-03-20 01:22:00,30.0,22.0,30.09,WSW,254,3.0,-999.0,73,-99.99,,,0.00,weatherlink.com 1.10,2013-03-20 05:22:00,
2013-03-20 01:37:00,30.0,22.0,30.09,West,275,3.0,-999.0,72,-99.99,,,0.00,weatherlink.com 1.10,2013-03-20 05:37:00,
2013-03-20 01:52:00,29.9,22.0,30.09,West,264,4.0,-999.0,72,-99.99,,,0.00,weatherlink.com 1.10,2013-03-20 05:52:00,
2013-03-20 02:07:00,29.7,22.0,30.09,West,261,2.0,-999.0,72,-99.99,,,0.00,weatherlink.com 1.10,2013-03-20 06:07:00,
2013-03-20 02:22:00,29.4,21.0,30.08,WNW,286,3.0,-999.0,72,-99.99,,,0.00,weatherlink.com 1.10,2013-03-20 06:22:00,
2013-03-20 02:37:00,29.4,21.0,30.08,West,271,1.0,-999.0,72,-99.99,,,0.00,weatherlink.com 1.10,2013-03-20 06:37:00,
2013-03-20 02:53:00,28.7,22.0,30.07,WSW,258,2.0,-999.0,75,-99.99,,,0.00,weatherlink.com 1.10,2013-03-20 06:53:00,
2013-03-20 03:08:00,28.5,22.0,30.08,WSW,255,4.0,-999.0,75,-99.99,,,0.00,weatherlink.com 1.10,2013-03-20 07:08:00,
2013-03-20 03:23:00,28.4,21.0,30.07,West,275,5.0,-999.0,75,-99.99,,,0.00,weatherlink.com 1.10,2013-03-20 07:23:00,
2013-03-20 03:38:00,28.1,21.0,30.07,West,275,4.0,-999.0,76,-99.99,,,0.00,weatherlink.com 1.10,2013-03-20 07:38:00,
2013-03-20 03:53:00,28.0,21.0,30.06,West,275,4.0,-999.0,75,-99.99,,,0.00,weatherlink.com 1.10,2013-03-20 07:53:00,
2013-03-20 04:08:00,27.8,21.0,30.06,WNW,294,2.0,-999.0,75,-99.99,,,0.00,weatherlink.com 1.10,2013-03-20 08:08:00,
2013-03-20 04:23:00,27.6,21.0,30.06,WNW,295,5.0,-999.0,76,-99.99,,,0.00,weatherlink.com 1.10,2013-03-20 08:23:00,
2013-03-20 04:38:00,27.3,21.0,30.05,WSW,252,3.0,-999.0,78,-99.99,,,0.00,weatherlink.com 1.10,2013-03-20 08:38:00,
2013-03-20 04:53:00,26.9,21.0,30.05,WSW,252,4.0,-999.0,79,-99.99,,,0.00,weatherlink.com 1.10,2013-03-20 08:53:00,
2013-03-20 05:08:00,26.6,21.0,30.05,WNW,283,6.0,-999.0,79,-99.99,,,0.00,weatherlink.com 1.10,2013-03-20 09:08:00,
2013-03-20 05:23:00,26.7,21.0,30.05,West,277,4.0,-999.0,78,-99.99,,,0.00,weatherlink.com 1.10,2013-03-20 09:23:00,
2013-03-20 05:38:00,26.3,21.0,30.05,West,281,3.0,-999.0,80,-99.99,,,0.00,weatherlink.com 1.10,2013-03-20 09:38:00,
2013-03-20 05:53:00,26.1,21.0,30.05,West,263,5.0,-999.0,80,-99.99,,,0.00,weatherlink.com 1.10,2013-03-20 09:53:00,
2013-03-20 06:08:00,26.1,21.0,30.05,WNW,298,5.0,-999.0,81,-99.99,,,0.00,weatherlink.com 1.10,2013-03-20 10:08:00,
2013-03-20 06:23:00,26.0,21.0,30.04,West,273,5.0,-999.0,81,-99.99,,,0.00,weatherlink.com 1.10,2013-03-20 10:23:00,
2013-03-20 06:38:00,25.9,21.0,30.05,West,269,4.0,-999.0,81,-99.99,,,0.00,weatherlink.com 1.10,2013-03-20 10:38:00,
2013-03-20 06:53:00,25.7,21.0,30.05,WNW,294,3.0,-999.0,81,-99.99,,,0.00,weatherlink.com 1.10,2013-03-20 10:53:00,
2013-03-20 07:08:00,25.7,21.0,30.05,WNW,300,4.0,-999.0,81,-99.99,,,0.00,weatherlink.com 1.10,2013-03-20 11:08:00,
2013-03-20 07:23:00,25.9,21.0,30.06,NW,317,9.0,-999.0,80,-99.99,,,0.00,weatherlink.com 1.10,2013-03-20 11:23:00,
2013-03-20 07:38:00,25.6,20.0,30.06,West,270,8.0,-999.0,79,-99.99,,,0.00,weatherlink.com 1.10,2013-03-20 11:38:00,
2013-03-20 07:53:00,25.4,20.0,30.06,NW,309,7.0,-999.0,80,-99.99,,,0.00,weatherlink.com 1.10,2013-03-20 11:53:00,
2013-03-20 08:08:00,25.3,20.0,30.07,WNW,298,7.0,-999.0,81,-99.99,,,0.00,weatherlink.com 1.10,2013-03-20 12:08:00,
2013-03-20 08:23:00,24.8,19.0,30.07,WNW,282,4.0,-999.0,77,-99.99,,,0.00,weatherlink.com 1.10,2013-03-20 12:23:00,
2013-03-20 08:38:00,24.7,19.0,30.07,West,275,5.0,-999.0,79,-99.99,,,0.00,weatherlink.com 1.10,2013-03-20 12:38:00,
2013-03-20 08:53:00,24.3,18.0,30.07,West,265,11.0,-999.0,78,-99.99,,,0.00,weatherlink.com 1.10,2013-03-20 12:53:00,
2013-03-20 09:08:00,24.0,18.0,30.08,West,280,6.0,-999.0,79,-99.99,,,0.00,weatherlink.com 1.10,2013-03-20 13:08:00,
2013-03-20 09:23:00,23.6,18.0,30.08,WSW,258,11.0,-999.0,78,-99.99,,,0.00,weatherlink.com 1.10,2013-03-20 13:23:00,
2013-03-20 09:38:00,23.7,18.0,30.08,West,261,11.0,-999.0,78,-99.99,,,0.00,weatherlink.com 1.10,2013-03-20 13:38:00,
2013-03-20 09:53:00,24.1,18.0,30.08,West,275,14.0,-999.0,78,-99.99,,,0.00,weatherlink.com 1.10,2013-03-20 13:53:00,
2013-03-20 10:09:00,23.1,17.0,30.09,West,271,13.0,-999.0,77,-99.99,,,0.00,weatherlink.com 1.10,2013-03-20 14:09:00,
2013-03-20 10:24:00,23.0,16.0,30.09,WSW,255,7.0,-999.0,74,-99.99,,,0.00,weatherlink.com 1.10,2013-03-20 14:24:00,
2013-03-20 10:39:00,23.1,16.0,30.09,WNW,285,10.0,-999.0,74,-99.99,,,0.00,weatherlink.com 1.10,2013-03-20 14:39:00,
2013-03-20 10:54:00,23.1,15.0,30.09,NW,313,10.0,-999.0,71,-99.99,,,0.00,weatherlink.com 1.10,2013-03-20 14:54:00,
2013-03-20 11:09:00,22.6,15.0,30.10,WSW,254,8.0,-999.0,72,-99.99,,,0.00,weatherlink.com 1.10,2013-03-20 15:09:00,
2013-03-20 11:24:00,23.0,15.0,30.10,West,266,13.0,-999.0,70,-99.99,,,0.00,weatherlink.com 1.10,2013-03-20 15:24:00,
2013-03-20 11:54:00,23.7,14.0,30.10,West,260,9.0,-999.0,67,-99.99,,,0.00,weatherlink.com 1.10,2013-03-20 15:54:00,
2013-03-20 12:09:00,24.1,14.0,30.10,WNW,286,12.0,-999.0,66,-99.99,,,0.00,weatherlink.com 1.10,2013-03-20 16:09:00,
2013-03-20 12:24:00,24.9,15.0,30.09,WNW,291,9.0,-999.0,65,-99.99,,,0.00,weatherlink.com 1.10,2013-03-20 16:24:00,
2013-03-20 12:39:00,24.9,13.0,30.09,WSW,249,9.0,-999.0,61,-99.99,,,0.00,weatherlink.com 1.10,2013-03-20 16:39:00,
2013-03-20 12:54:00,25.3,13.0,30.09,West,279,7.0,-999.0,60,-99.99,,,0.00,weatherlink.com 1.10,2013-03-20 16:54:00,
2013-03-20 13:09:00,26.3,15.0,30.09,WNW,303,8.0,-999.0,63,-99.99,,,0.00,weatherlink.com 1.10,2013-03-20 17:09:00,
2013-03-20 13:24:00,25.9,14.0,30.08,West,264,11.0,-999.0,60,-99.99,,,0.00,weatherlink.com 1.10,2013-03-20 17:24:00,
2013-03-20 13:39:00,26.1,13.0,30.08,WNW,283,15.0,-999.0,59,-99.99,,,0.00,weatherlink.com 1.10,2013-03-20 17:39:00,
2013-03-20 13:54:00,26.7,14.0,30.08,WNW,295,7.0,-999.0,59,-99.99,,,0.00,weatherlink.com 1.10,2013-03-20 17:54:00,
2013-03-20 14:09:00,27.6,15.0,30.07,WNW,286,12.0,-999.0,60,-99.99,,,0.00,weatherlink.com 1.10,2013-03-20 18:09:00,
2013-03-20 14:24:00,27.5,14.0,30.07,WNW,284,15.0,-999.0,58,-99.99,,,0.00,weatherlink.com 1.10,2013-03-20 18:24:00,
2013-03-20 14:39:00,26.2,13.0,30.07,WSW,255,11.0,-999.0,58,-99.99,,,0.00,weatherlink.com 1.10,2013-03-20 18:39:00,
2013-03-20 14:54:00,27.8,14.0,30.06,West,259,12.0,-999.0,57,-99.99,,,0.00,weatherlink.com 1.10,2013-03-20 18:54:00,
2013-03-20 15:09:00,26.4,13.0,30.06,WNW,299,6.0,-999.0,56,-99.99,,,0.00,weatherlink.com 1.10,2013-03-20 19:09:00,
2013-03-20 15:24:00,26.6,12.0,30.05,WNW,284,6.0,-999.0,55,-99.99,,,0.00,weatherlink.com 1.10,2013-03-20 19:24:00,
2013-03-20 15:39:00,27.9,15.0,30.05,WSW,244,13.0,-999.0,58,-99.99,,,0.00,weatherlink.com 1.10,2013-03-20 19:39:00,
2013-03-20 15:54:00,27.3,12.0,30.05,West,279,10.0,-999.0,53,-99.99,,,0.00,weatherlink.com 1.10,2013-03-20 19:54:00,
2013-03-20 16:09:00,27.6,14.0,30.05,West,265,10.0,-999.0,56,-99.99,,,0.00,weatherlink.com 1.10,2013-03-20 20:09:00,
2013-03-20 16:24:00,27.0,12.0,30.05,WNW,292,19.0,-999.0,54,-99.99,,,0.00,weatherlink.com 1.10,2013-03-20 20:24:00,
2013-03-20 16:39:00,26.9,13.0,30.04,WSW,248,15.0,-999.0,55,-99.99,,,0.00,weatherlink.com 1.10,2013-03-20 20:39:00,
2013-03-20 16:54:00,27.1,13.0,30.04,WNW,286,13.0,-999.0,56,-99.99,,,0.00,weatherlink.com 1.10,2013-03-20 20:54:00,
2013-03-20 17:09:00,28.7,15.0,30.03,West,275,10.0,-999.0,57,-99.99,,,0.00,weatherlink.com 1.10,2013-03-20 21:09:00,
2013-03-20 17:24:00,27.6,12.0,30.03,West,261,12.0,-999.0,53,-99.99,,,0.00,weatherlink.com 1.10,2013-03-20 21:24:00,
2013-03-20 17:39:00,27.6,13.0,30.03,West,268,2.0,-999.0,54,-99.99,,,0.00,weatherlink.com 1.10,2013-03-20 21:39:00,
2013-03-20 17:54:00,29.0,15.0,30.04,WSW,252,16.0,-999.0,55,-99.99,,,0.00,weatherlink.com 1.10,2013-03-20 21:54:00,
2013-03-20 18:09:00,27.9,11.0,30.04,WSW,244,9.0,-999.0,50,-99.99,,,0.00,weatherlink.com 1.10,2013-03-20 22:09:00,
2013-03-20 18:24:00,27.7,12.0,30.04,West,275,10.0,-999.0,51,-99.99,,,0.00,weatherlink.com 1.10,2013-03-20 22:24:00,
2013-03-20 18:39:00,27.7,12.0,30.04,WNW,290,11.0,-999.0,52,-99.99,,,0.00,weatherlink.com 1.10,2013-03-20 22:39:00,
2013-03-20 18:54:00,27.4,12.0,30.04,WSW,254,13.0,-999.0,52,-99.99,,,0.00,weatherlink.com 1.10,2013-03-20 22:54:00,
2013-03-20 19:09:00,27.2,12.0,30.04,WNW,284,18.0,-999.0,53,-99.99,,,0.00,weatherlink.com 1.10,2013-03-20 23:09:00,
2013-03-20 19:24:00,27.0,12.0,30.04,West,279,17.0,-999.0,53,-99.99,,,0.00,weatherlink.com 1.10,2013-03-20 23:24:00,
2013-03-20 19:39:00,26.9,13.0,30.04,NNW,331,14.0,-999.0,55,-99.99,,,0.00,weatherlink.com 1.10,2013-03-20 23:39:00,
2013-03-20 19:54:00,26.5,12.0,30.04,West,275,7.0,-999.0,54,-99.99,,,0.00,weatherlink.com 1.10,2013-03-20 23:54:00,
2013-03-20 20:09:00,26.2,14.0,30.04,WNW,296,11.0,-999.0,59,-99.99,,,0.00,weatherlink.com 1.10,2013-03-21 00:09:00,
2013-03-20 20:24:00,25.9,13.0,30.04,NW,317,11.0,-999.0,58,-99.99,,,0.00,weatherlink.com 1.10,2013-03-21 00:24:00,
2013-03-20 20:39:00,25.7,13.0,30.04,West,281,14.0,-999.0,59,-99.99,,,0.00,weatherlink.com 1.10,2013-03-21 00:39:00,
2013-03-20 20:54:00,25.5,13.0,30.05,West,266,4.0,-999.0,60,-99.99,,,0.00,weatherlink.com 1.10,2013-03-21 00:54:00,
2013-03-20 21:09:00,25.1,14.0,30.05,WNW,286,14.0,-999.0,64,-99.99,,,0.00,weatherlink.com 1.10,2013-03-21 01:09:00,
2013-03-20 21:24:00,24.8,14.0,30.05,WNW,290,9.0,-999.0,64,-99.99,,,0.00,weatherlink.com 1.10,2013-03-21 01:24:00,
2013-03-20 21:39:00,24.4,15.0,30.05,NW,311,2.0,-999.0,67,-99.99,,,0.00,weatherlink.com 1.10,2013-03-21 01:39:00,
2013-03-20 21:54:00,24.3,15.0,30.05,NW,318,3.0,-999.0,68,-99.99,,,0.00,weatherlink.com 1.10,2013-03-21 01:54:00,
2013-03-20 22:09:00,24.4,15.0,30.05,West,265,7.0,-999.0,67,-99.99,,,0.00,weatherlink.com 1.10,2013-03-21 02:09:00,
2013-03-20 22:24:00,24.2,15.0,30.05,NW,318,5.0,-999.0,69,-99.99,,,0.00,weatherlink.com 1.10,2013-03-21 02:24:00,
2013-03-20 22:39:00,24.1,15.0,30.05,West,274,4.0,-999.0,69,-99.99,,,0.00,weatherlink.com 1.10,2013-03-21 02:39:00,
2013-03-20 22:54:00,24.0,15.0,30.05,NNW,342,7.0,-999.0,69,-99.99,,,0.00,weatherlink.com 1.10,2013-03-21 02:54:00,
2013-03-20 23:09:00,23.9,15.0,30.04,NW,306,7.0,-999.0,68,-99.99,,,0.00,weatherlink.com 1.10,2013-03-21 03:09:00,
2013-03-20 23:24:00,23.4,15.0,30.04,West,265,14.0,-999.0,69,-99.99,,,0.00,weatherlink.com 1.10,2013-03-21 03:24:00,
2013-03-20 23:39:00,23.2,14.0,30.04,WNW,287,6.0,-999.0,69,-99.99,,,0.00,weatherlink.com 1.10,2013-03-21 03:39:00,